Wetbulb
53.57 53.20 50.30 49.26 46.78 50.32 44.22 44.50 41.66 45.92 52.19 55.88 59.23 58.71 60.16 60.96 62.47 63.11 65.88 65.52 66.25 68.52 69.16 69.69 70.69 71.55 72.71 72.83 73.12 74.04 74.29 73.99
52.70 53.45 52.96 48.73 53.35 45.00 44.73 39.48 38.60 43.38 45.16 49.69 53.60 56.72 59.29 59.58 61.69 65.14 65.75 65.39 66.09 66.89 68.13 69.80 70.63 71.67 72.62 73.68 73.44 74.24 74.57 75.73
48.82 46.17 46.61 49.00 47.12 47.27 45.08 43.13 40.00 38.73 43.20 54.43 56.44 58.21 58.12 59.39 61.92 64.62 65.51 64.50 65.04 65.80 67.29 69.38 69.82 71.27 71.96 73.58 73.83 73.84 74.79 74.63
44.70 50.58 52.21 50.43 46.49 44.69 40.25 41.21 42.23 42.42 42.79 57.59 58.34 59.39 60.00 59.26 62.15 64.33 65.63 65.54 64.78 65.81 66.35 68.28 68.68 70.44 71.04 73.58 73.91 74.43 74.68 74.83
40.99 44.65 48.12 45.19 48.07 47.05 46.60 43.98 40.96 40.47 43.76 54.76 57.94 57.89 59.19 60.33 62.20 64.47 65.05 65.17 65.54 64.15 65.31 66.59 67.54 68.82 70.01 73.09 73.74 74.24 74.11 73.69
37.86 42.03 46.78 45.79 47.89 48.50 44.88 40.24 41.85 43.33 45.29 54.09 56.53 57.20 57.18 59.72 62.91 62.17 63.12 65.33 65.50 65.33 67.42 66.88 67.11 67.84 69.70 72.18 73.35 73.93 73.78 73.20
45.65 47.23 47.90 47.63 47.85 48.26 46.12 45.58 41.75 45.25 46.04 52.06 55.81 56.65 57.59 60.54 62.40 63.34 63.45 63.60 63.82 65.97 67.58 68.34 69.78 68.75 68.99 70.46 70.82 73.47 72.90 72.49
41.41 46.61 46.91 45.59 47.64 48.26 48.04 48.28 47.76 47.76 47.53 50.23 57.65 55.34 54.87 56.51 61.17 61.98 63.22 64.18 64.51 65.15 65.64 66.56 67.83 70.37 70.60 70.04 70.33 69.80 72.03 71.80
35.30 42.59 42.76 39.42 43.83 45.51 46.59 48.28 47.20 44.59 48.52 52.08 51.93 54.06 53.99 54.38 61.57 62.87 63.35 63.52 63.15 63.30 65.42 64.51 65.93 69.17 70.97 72.98 71.08 70.37 70.74 71.55
36.99 37.24 32.28 41.49 46.64 48.09 47.04 48.36 48.92 48.73 50.21 51.82 52.57 53.55 52.74 55.15 55.56 62.83 63.98 63.85 62.84 63.18 64.11 64.56 65.69 67.77 70.07 70.56 71.83 74.88 74.80 75.41
36.55 36.24 40.55 43.83 46.68 46.14 44.18 45.12 50.77 50.54 52.31 54.46 57.28 56.17 57.22 60.33 64.39 63.44 62.80 63.08 62.66 63.22 63.04 63.98 66.50 67.36 68.28 71.36 72.27 72.04 71.71 74.84
39.35 35.55 34.98 44.26 51.09 54.04 51.50 41.52 52.23 53.24 52.10 56.15 56.46 48.88 54.61 60.78 62.42 62.56 62.88 62.87 63.01 62.72 63.22 64.03 64.89 66.43 67.06 67.70 70.38 71.06 73.08 74.29
42.41 40.26 43.09 49.74 52.34 54.23 41.41 42.92 52.84 53.86 52.87 51.22 54.48 55.05 57.52 60.81 61.00 61.54 61.45 61.67 63.35 63.93 62.93 64.71 66.96 67.09 66.94 70.89 72.10 74.74 75.48 75.11
42.18 39.36 37.96 51.95 51.19 45.20 49.11 52.05 52.83 53.10 52.94 53.11 56.56 58.60 58.69 58.95 59.05 60.41 60.20 62.15 63.65 63.03 64.43 67.06 67.75 66.69 66.98 70.77 73.16 72.52 73.37 73.69
43.46 43.43 49.34 52.26 50.94 53.03 52.88 51.08 52.04 52.13 53.68 53.95 55.58 57.76 57.83 56.77 57.99 59.78 60.04 60.50 63.27 63.93 64.33 65.50 67.64 68.53 66.80 67.99 71.41 71.69 71.68 71.89
44.14 48.16 49.59 51.16 52.51 53.05 53.19 52.47 54.00 54.64 54.63 54.61 54.57 57.26 57.32 57.05 57.46 58.30 60.07 60.37 63.66 63.52 63.89 64.56 66.37 67.70 68.30 69.27 72.11 71.82 70.82 71.56
45.25 47.96 49.27 50.94 52.47 53.13 54.02 54.84 54.12 54.81 54.55 55.16 56.98 56.44 54.31 56.41 56.90 57.81 59.78 62.36 64.00 64.81 64.50 64.38 65.54 66.08 67.65 69.36 69.92 69.84 70.14 66.25
43.69 49.37 48.82 49.35 52.41 53.75 52.98 52.87 53.87 53.79 54.64 55.55 58.86 56.91 57.75 56.03 57.34 58.43 61.23 64.68 63.68 62.51 62.28 62.22 62.97 63.33 65.00 66.86 68.47 69.51 66.75 62.60
47.95 50.98 51.27 51.96 52.88 53.82 52.83 53.08 53.89 54.64 54.68 54.01 57.03 57.45 57.89 57.66 58.57 61.21 62.02 60.74 59.71 60.73 61.86 61.76 62.40 62.72 64.56 67.58 69.58 67.64 64.10 61.07
MSLP
997.42 996.91 996.68 996.43 997.07 997.14 998.71 999.55 999.95 999.55 998.74 997.49 996.30 994.60 995.44 995.52 994.45 995.16 995.53 996.13 997.04 998.14 999.08 1000.12 1001.30 1002.48 1003.57 1005.02 1005.93 1006.69 1007.25 1008.01
997.94 997.65 996.24 996.84 996.45 997.33 998.84 1000.23 1000.44 999.77 998.94 997.98 996.81 996.10 995.91 996.36 993.19 993.58 994.49 995.52 996.13 997.15 998.22 999.30 1000.36 1001.40 1002.64 1003.88 1004.83 1005.67 1006.49 1007.15
1000.15 999.29 998.57 997.74 998.04 998.35 998.84 999.94 1000.25 999.95 998.87 997.53 996.50 996.06 997.28 997.38 995.48 994.80 995.02 995.12 995.92 996.44 997.35 998.36 999.59 1000.71 1001.82 1003.21 1004.23 1005.15 1005.83 1006.44
1001.61 999.99 998.94 998.48 998.83 999.60 1000.41 1000.23 999.74 999.27 998.35 996.77 996.64 996.89 996.69 997.47 998.50 996.92 997.19 995.74 995.70 995.79 996.60 997.65 998.57 999.75 1000.85 1002.15 1003.23 1004.01 1004.82 1005.66
1002.66 1001.36 999.57 999.47 999.57 1000.09 1000.27 1000.10 1000.04 999.53 997.97 996.37 996.34 996.43 996.16 996.96 996.40 996.87 998.47 997.23 996.68 996.46 996.55 997.03 997.83 998.78 999.79 1000.80 1001.81 1002.82 1003.79 1004.59
1004.62 1003.74 1002.56 1000.99 1000.57 1000.53 1001.02 1001.29 1000.80 999.93 998.55 997.63 997.08 996.29 996.17 996.19 996.52 997.09 997.74 997.98 997.74 997.79 997.59 997.87 997.70 998.17 999.05 999.99 1000.76 1001.72 1002.79 1003.62
1004.79 1004.01 1003.09 1002.08 1001.32 1001.04 1001.00 1000.79 1000.88 999.96 999.24 998.33 997.16 996.65 996.95 996.77 996.81 997.03 997.73 998.41 998.36 998.50 998.65 998.36 998.42 998.81 998.99 999.43 1000.20 1001.12 1002.00 1002.74
1005.53 1004.55 1003.65 1002.76 1001.81 1001.04 1000.79 1000.47 999.99 999.66 998.51 998.89 997.21 996.77 996.53 996.59 997.01 997.66 998.22 998.34 998.72 999.07 999.02 999.06 998.72 998.56 999.07 999.40 999.91 1000.50 1001.31 1001.95
1006.11 1005.52 1004.45 1003.21 1002.13 1001.50 1000.94 1000.59 1000.31 999.64 998.63 997.61 997.87 997.70 997.11 996.99 997.14 997.66 997.88 998.33 998.84 999.25 999.68 999.47 999.30 999.20 999.49 999.80 999.92 1000.26 1000.85 1001.32
1006.72 1006.20 1004.87 1003.36 1002.11 1001.71 1001.21 1000.64 1000.16 999.68 998.97 997.83 997.57 997.32 996.82 996.41 996.38 997.51 998.07 998.54 998.94 999.29 999.35 999.47 999.52 999.61 999.47 999.62 1000.23 1000.73 1001.06 1001.37
1006.70 1006.25 1004.94 1003.92 1002.62 1001.93 1001.83 1001.26 1001.42 1000.95 999.74 998.83 997.79 997.14 997.58 996.12 996.27 997.22 998.21 999.03 999.38 999.45 999.82 999.82 999.86 1000.02 1000.07 1000.30 1000.32 1000.67 1001.15 1001.37
1006.49 1005.97 1005.31 1004.00 1003.16 1002.43 1001.75 1002.13 1002.74 1002.51 1001.99 1000.63 999.24 999.25 999.71 998.66 998.41 998.73 998.99 999.03 999.69 999.97 1000.12 1000.34 1000.56 1000.44 1000.95 1001.17 1001.25 1001.46 1001.46 1001.38
1006.85 1006.44 1005.50 1005.38 1004.70 1003.26 1003.65 1005.27 1004.21 1003.97 1003.79 1003.31 1001.42 1001.39 1000.38 999.71 999.69 999.92 1000.05 1000.00 999.99 1000.49 1000.74 1001.07 1001.03 1001.05 1001.50 1001.69 1001.92 1002.02 1001.94 1001.82
1008.23 1007.48 1006.38 1005.98 1005.59 1006.67 1006.36 1005.42 1005.76 1005.08 1005.04 1004.48 1003.47 1001.46 1001.49 1001.11 1000.84 1000.71 1001.04 1001.18 1001.05 1001.28 1001.54 1001.67 1001.58 1001.66 1001.91 1001.98 1002.08 1002.04 1001.94 1001.83
1010.27 1008.69 1007.45 1006.75 1007.35 1006.98 1007.19 1006.65 1005.63 1005.92 1005.13 1005.22 1004.54 1002.95 1001.99 1001.94 1002.01 1001.90 1001.83 1002.00 1002.03 1002.03 1002.20 1002.36 1002.19 1002.11 1002.25 1002.11 1001.90 1001.77 1001.70 1001.54
1010.38 1007.94 1008.10 1007.52 1006.97 1006.85 1006.39 1006.09 1005.90 1005.61 1005.20 1005.08 1004.38 1003.87 1003.30 1002.22 1002.37 1002.63 1002.67 1002.73 1002.92 1002.68 1002.59 1002.59 1002.35 1002.24 1002.22 1002.19 1002.10 1001.91 1001.76 1001.51
1009.21 1008.50 1007.79 1006.89 1006.64 1006.30 1005.91 1005.72 1005.61 1005.69 1005.50 1004.95 1004.10 1003.73 1003.86 1003.19 1002.58 1002.90 1003.14 1003.33 1003.22 1003.41 1003.66 1002.94 1002.58 1002.67 1002.60 1002.37 1002.18 1001.94 1001.83 1001.84
1008.72 1007.84 1007.37 1006.33 1005.77 1005.71 1005.50 1005.30 1005.31 1005.35 1005.04 1004.55 1003.90 1003.53 1003.84 1003.62 1002.79 1003.06 1003.52 1003.89 1004.02 1004.34 1003.83 1002.81 1002.99 1003.27 1002.92 1002.36 1002.04 1001.81 1001.90 1002.12
1008.18 1007.58 1006.91 1005.54 1004.68 1004.24 1004.05 1003.99 1004.22 1004.31 1004.45 1004.33 1003.66 1003.14 1003.96 1003.20 1002.82 1004.26 1004.37 1004.31 1004.54 1004.14 1003.86 1003.78 1003.58 1003.50 1002.88 1002.10 1001.57 1001.53 1002.00 1002.49
Wind_Speed
15 15 7 12 5 13 5 6 4 3 4 8 10 8 7 1 26 25 22 23 23 23 21 21 21 24 22 22 19 19 19 15
18 17 20 5 6 7 5 0 5 6 6 3 7 12 19 27 14 23 22 22 22 19 19 20 18 22 22 24 22 21 19 15
10 6 11 16 9 7 4 6 6 3 6 9 14 15 11 18 16 16 12 19 19 18 17 20 18 19 17 20 20 18 17 15
10 17 18 15 8 8 5 11 3 5 7 8 14 16 18 5 14 11 18 12 13 20 19 19 20 19 19 20 19 19 17 17
11 10 9 6 16 13 13 6 6 5 7 3 14 10 13 11 9 12 7 14 12 3 16 18 19 19 20 21 21 20 18 16
6 9 11 15 18 15 8 5 9 8 8 11 1 7 6 7 9 10 9 10 10 9 7 2 13 17 19 20 20 20 18 18
10 12 16 20 20 15 14 11 5 12 12 4 4 8 3 7 8 9 9 9 8 8 7 7 6 6 11 17 17 18 18 17
9 12 14 19 18 17 14 16 14 12 19 1 5 7 4 6 7 10 10 9 7 8 8 8 8 4 7 13 14 11 17 18
8 10 15 12 8 10 14 14 9 11 14 10 5 7 7 6 8 10 10 10 7 6 7 7 8 7 8 4 5 8 11 13
7 6 10 7 6 9 12 13 11 12 13 16 10 7 5 9 8 9 10 7 7 7 7 6 5 7 6 6 6 4 2 5
6 7 11 9 12 10 6 11 14 19 14 10 15 11 14 5 9 14 11 7 6 7 4 6 6 6 8 7 6 4 2 5
4 6 9 10 14 16 10 7 21 22 24 18 10 5 3 13 14 12 9 8 7 7 6 8 8 8 9 8 5 5 6 7
9 9 7 14 17 11 4 9 19 17 19 24 7 3 4 8 10 8 8 8 9 8 7 7 7 8 8 7 6 6 6 7
7 6 11 23 13 5 12 16 13 17 16 19 17 8 7 8 8 8 9 9 8 8 7 7 7 7 7 6 5 6 6 8
4 6 22 16 12 16 14 15 19 13 16 15 14 9 4 3 7 7 7 7 7 7 7 6 6 6 6 7 7 7 6 10
11 9 18 21 22 19 21 16 13 9 15 15 15 8 12 7 6 6 6 7 5 7 7 7 7 7 6 7 7 6 8 10
12 17 20 21 17 17 18 16 18 13 13 15 5 5 3 6 6 4 3 3 5 6 5 5 7 8 8 7 6 6 7 1
15 23 22 26 25 25 23 21 18 17 13 14 5 3 3 7 2 2 5 6 6 5 6 8 8 9 9 9 9 8 4 2
19 24 26 30 30 31 28 25 22 19 11 14 10 2 8 7 3 8 7 8 7 8 6 7 8 9 9 8 3 4 6 6
Wind_Direction
340 328 353 281 331 218 220 277 358 246 307 308 295 321 79 258 290 222 182 176 178 179 180 182 171 179 178 180 184 184 187 191
319 334 313 311 241 8 355 79 298 292 299 171 40 23 9 323 264 177 168 173 176 173 174 177 171 177 179 178 182 186 188 186
351 321 307 333 341 324 165 149 191 255 280 207 136 142 88 312 10 30 315 163 172 168 167 168 166 173 168 175 180 185 185 189
287 305 296 286 297 9 27 297 221 171 261 171 155 148 124 212 283 67 264 37 178 168 168 167 172 169 168 173 178 183 185 183
329 335 335 15 334 343 332 352 300 147 265 135 158 151 150 180 77 65 42 35 23 135 175 172 174 172 171 172 179 182 182 180
232 262 298 304 316 324 326 337 311 308 327 19 355 141 61 70 91 83 62 54 23 12 48 117 189 172 172 174 179 179 180 185
293 301 301 299 305 310 305 295 298 302 319 356 197 73 120 124 114 82 63 74 39 14 25 50 89 149 183 178 179 177 181 185
312 294 287 292 298 296 293 297 297 301 296 94 304 139 196 249 164 133 126 89 54 26 47 31 30 142 157 180 180 169 182 193
281 303 308 303 291 296 297 292 306 295 289 311 247 236 266 271 198 158 137 124 113 81 79 50 34 44 66 125 168 168 176 191
269 287 278 257 261 299 301 308 321 322 324 317 309 293 274 252 211 151 125 117 112 83 88 65 37 19 42 55 86 109 185 181
231 225 267 297 285 282 328 308 2 342 336 340 345 357 9 23 96 112 113 93 83 71 57 27 41 25 44 23 7 358 240 222
244 243 256 246 349 347 328 290 357 358 352 344 353 36 20 41 54 61 70 81 64 49 34 43 26 58 49 14 26 33 354 309
318 305 281 25 352 327 291 330 330 346 350 344 40 7 23 57 55 55 53 50 58 43 55 58 41 45 33 20 24 359 352 324
341 316 280 4 359 24 327 326 341 335 341 342 323 92 28 22 33 61 51 27 53 54 25 40 36 39 12 4 350 338 329 315
254 289 312 322 310 303 298 289 302 308 313 315 320 306 131 84 32 29 48 34 29 51 43 17 22 35 5 317 322 313 317 309
319 297 301 297 296 295 296 291 285 306 300 294 293 319 329 74 40 27 39 31 26 21 23 7 3 347 326 304 307 312 309 303
259 281 286 276 276 281 292 288 298 303 288 288 293 340 13 301 81 1 345 58 48 32 354 8 3 338 313 307 303 295 307 286
274 284 282 283 283 278 274 273 274 276 284 299 223 211 319 302 3 307 38 50 45 30 3 357 346 322 307 294 286 271 189 115
273 283 283 279 273 269 265 259 253 256 263 277 283 59 260 280 324 89 61 48 34 14 10 349 342 324 311 292 292 123 122 113